TimeCDT,TemperatureF,Dew PointF,Humidity,Sea Level PressureIn,VisibilityMPH,Wind Direction,Wind SpeedMPH,Gust SpeedMPH,PrecipitationIn,Events,Conditions,WindDirDegrees,DateUTC
12:05 AM,70.0,69.1,97,29.97,0.5,East,3.5,-,N/A,Fog,Fog,100,2013-08-03 05:05:00
12:09 AM,70.0,69.1,97,29.96,0.2,East,3.5,-,N/A,Fog,Fog,80,2013-08-03 05:09:00
12:19 AM,70.0,69.1,97,29.96,0.5,East,3.5,-,N/A,Fog,Fog,80,2013-08-03 05:19:00
12:54 AM,70.0,69.1,97,29.95,1.0,NE,3.5,-,N/A,,Overcast,40,2013-08-03 05:54:00
1:13 AM,69.1,68.0,96,29.96,2.5,NE,4.6,-,N/A,,Overcast,40,2013-08-03 06:13:00
1:38 AM,69.1,68.0,96,29.96,3.0,NNE,6.9,-,N/A,,Overcast,20,2013-08-03 06:38:00
1:54 AM,70.0,69.1,97,29.95,3.0,North,3.5,-,N/A,,Overcast,10,2013-08-03 06:54:00
2:16 AM,70.0,68.0,93,29.95,3.0,NNE,8.1,-,N/A,,Overcast,20,2013-08-03 07:16:00
2:19 AM,70.0,68.0,93,29.95,2.5,NNE,8.1,-,N/A,,Overcast,20,2013-08-03 07:19:00
2:31 AM,70.0,69.1,97,29.94,2.0,NNE,6.9,-,N/A,,Overcast,30,2013-08-03 07:31:00
2:50 AM,69.8,69.8,100,29.95,3.0,NNE,6.9,-,N/A,,Overcast,30,2013-08-03 07:50:00
2:54 AM,70.0,69.1,97,29.93,3.0,NNE,8.1,-,N/A,,Mostly Cloudy,30,2013-08-03 07:54:00
3:05 AM,70.0,68.0,93,29.94,2.5,NNE,8.1,-,N/A,,Mostly Cloudy,30,2013-08-03 08:05:00
3:31 AM,69.1,68.0,96,29.95,3.0,Calm,Calm,-,N/A,,Clear,0,2013-08-03 08:31:00
3:40 AM,69.1,66.9,93,29.95,2.5,ENE,5.8,-,N/A,,Scattered Clouds,60,2013-08-03 08:40:00
3:50 AM,69.8,68.0,94,29.95,3.0,NE,6.9,-,N/A,,Mostly Cloudy,40,2013-08-03 08:50:00
3:54 AM,70.0,68.0,93,29.93,4.0,NNE,6.9,-,N/A,,Mostly Cloudy,30,2013-08-03 08:54:00
4:07 AM,70.0,68.0,93,29.96,4.0,NNE,8.1,-,N/A,,Overcast,30,2013-08-03 09:07:00
4:54 AM,69.1,68.0,96,29.96,6.0,NE,11.5,-,N/A,,Partly Cloudy,40,2013-08-03 09:54:00
5:22 AM,69.1,66.9,93,29.99,5.0,NE,6.9,-,N/A,,Mostly Cloudy,50,2013-08-03 10:22:00
5:54 AM,68.0,66.9,96,29.96,5.0,NE,10.4,-,N/A,,Overcast,50,2013-08-03 10:54:00
6:54 AM,68.0,66.9,96,30.00,6.0,ENE,5.8,-,N/A,,Overcast,60,2013-08-03 11:54:00
7:54 AM,69.1,66.9,93,30.02,4.0,ENE,6.9,-,N/A,,Overcast,70,2013-08-03 12:54:00
8:54 AM,69.1,66.9,93,30.05,4.0,ESE,5.8,-,N/A,,Overcast,110,2013-08-03 13:54:00
9:54 AM,70.0,68.0,93,30.06,6.0,East,6.9,-,N/A,,Overcast,90,2013-08-03 14:54:00
10:08 AM,71.1,68.0,90,30.08,6.0,East,8.1,-,N/A,,Overcast,80,2013-08-03 15:08:00
10:54 AM,73.0,69.1,87,30.08,10.0,ENE,5.8,-,N/A,,Overcast,60,2013-08-03 15:54:00
11:54 AM,75.0,69.1,82,30.08,10.0,ESE,3.5,-,N/A,,Overcast,120,2013-08-03 16:54:00
12:51 PM,78.8,69.8,74,30.09,10.0,NE,4.6,-,N/A,,Mostly Cloudy,50,2013-08-03 17:51:00
12:54 PM,78.1,70.0,76,30.07,10.0,NE,5.8,-,N/A,,Mostly Cloudy,40,2013-08-03 17:54:00
1:54 PM,81.0,70.0,69,30.06,10.0,WNW,3.5,-,N/A,,Mostly Cloudy,290,2013-08-03 18:54:00
2:32 PM,82.9,71.1,67,30.08,10.0,Variable,4.6,-,N/A,,Partly Cloudy,0,2013-08-03 19:32:00
2:54 PM,82.0,71.1,69,30.06,10.0,North,9.2,-,N/A,,Partly Cloudy,10,2013-08-03 19:54:00
3:54 PM,84.0,72.0,67,30.05,10.0,NNE,10.4,-,N/A,,Mostly Cloudy,20,2013-08-03 20:54:00
4:54 PM,84.0,70.0,63,30.05,10.0,NNE,9.2,-,N/A,,Partly Cloudy,30,2013-08-03 21:54:00
5:54 PM,82.0,69.1,65,30.05,10.0,NNE,11.5,-,N/A,,Scattered Clouds,30,2013-08-03 22:54:00
6:54 PM,81.0,66.9,62,30.05,10.0,NE,10.4,-,N/A,,Clear,40,2013-08-03 23:54:00
7:54 PM,77.0,69.1,76,30.06,10.0,NE,6.9,-,N/A,,Clear,40,2013-08-04 00:54:00
8:54 PM,73.0,66.9,81,30.07,10.0,ENE,5.8,-,N/A,,Clear,60,2013-08-04 01:54:00
9:54 PM,71.1,66.0,84,30.10,10.0,ENE,6.9,-,N/A,,Clear,60,2013-08-04 02:54:00
10:54 PM,70.0,63.0,78,30.12,10.0,East,5.8,-,N/A,,Clear,80,2013-08-04 03:54:00
11:54 PM,69.1,63.0,81,30.14,10.0,NE,4.6,-,N/A,,Clear,50,2013-08-04 04:54:00